Flag for South Africa Weather past 2 weeks in Cape Town, South Africa

Now
46 °F

Sunny.


Feels Like: 44 °F
Forecast: 52 / 60 °F
Wind: 5 mph from Southeast

Location: Cape Town International Airport

Current Time: Jul 3, 2015 at 8:58:46 AM

Latest Report: Jul 3, 2015 at 8:00 AM


Visibility: 10 mi

Pressure: 30.18 "Hg

Humidity: 87%

Dew point: 43 °F

Location of Cape TownLocation

Historic Weather in Cape Town — Graph

°F

Cape Town temperature yesterday

Maximum temperature yesterday: 63 °F (at 2:00 PM)
Minimum temperature yesterday: 43 °F (at 8:00 AM)
Average temperature yesterday: 54 °F

Past Weeks' High & Low Weather Summary

 TemperatureHumidityPressure
High72 °F (Jun 20, 1:00 PM)100% (Jun 19, 1:00 AM)30.48 "Hg (Jun 19, 1:00 AM)
Low41 °F (Jun 20, 5:00 AM)41% (Jun 20, 1:00 PM)29.86 "Hg (Jun 23, 9:00 PM)
Average54 °F86%30.22 "Hg
* Reported Jun 18 7:00 AM — Jul 3 7:00 AM, Cape Town, Weather by CustomWeather, © 2015

Note: Actual official high and low records may vary slightly from our data, if they occured in-between our weather recording intervals... More about our weather records

Advertising

Cape Town weather history for previous 24 hours

 ConditionsComfort  
Time TempWeatherWind HumidityBarometerVisibility
7:00 AM
Fri, Jul 3
50 °FPassing clouds.5 mph88%30.15 "HgN/A
6:00 AM46 °FClear.5 mph100%30.15 "Hg10 mi
5:00 AM43 °FClear.No wind100%30.15 "Hg4 mi
4:00 AM43 °FClear.No wind93%30.15 "Hg4 mi
3:00 AM43 °FClear.1 mph100%30.15 "Hg5 mi
2:00 AM45 °FClear.1 mph100%30.15 "Hg10 mi
1:00 AM52 °FClear.8 mph94%30.18 "Hg10 mi
12:00 AM54 °FPassing clouds.9 mph88%30.15 "HgN/A
11:00 PM
Thu, Jul 2
52 °FClear.7 mph94%30.18 "Hg10 mi
10:00 PM48 °FClear.6 mph87%30.18 "Hg10 mi
9:00 PM55 °FClear.15 mph77%30.18 "Hg10 mi
8:00 PM55 °FClear.17 mph82%30.18 "Hg10 mi
7:00 PM55 °FClear.12 mph72%30.18 "Hg10 mi
6:00 PM57 °FClear.6 mph72%30.18 "Hg10 mi
5:00 PM61 °FClear.13 mph63%30.15 "Hg10 mi
4:00 PM63 °FSunny.9 mph52%30.18 "Hg10 mi
3:00 PM63 °FPassing clouds.7 mph52%30.18 "HgN/A
2:00 PM63 °FPassing clouds.10 mph59%30.18 "HgN/A
1:00 PM61 °FSunny.10 mph63%30.21 "Hg10 mi
12:00 PM61 °FPassing clouds.8 mph68%30.24 "HgN/A
11:00 AM57 °FPassing clouds.3 mph82%30.27 "HgN/A
10:00 AM54 °FPassing clouds.3 mph88%30.27 "HgN/A
9:00 AM48 °FSunny.3 mph94%30.24 "Hg10 mi
8:00 AM43 °FPassing clouds.6 mph93%30.24 "HgN/A
Weather by CustomWeather, © 2015

See weather overviewHow to use our weather pages